Location: Luxembourg
(49.6117°N, 6.1300°E)
Time: 20:45:05
(UTC+01:00)

N. Korean satellite - Pass Details

Date: 01 February 2019
Orbit: 456 x 510 km, 97.2° (Epoch: 20 February)

Event Time Altitude Azimuth Distance (km) Brightness Sun altitude
Rises 07:09:10 0° 10° (N) 2,598 10.2 -9.8°
Reaches altitude 10° 07:11:17 10° 8° (N) 1,702 9.3 -9.5°
Maximum altitude 07:14:55 68° 286° (WNW) 531 6.5 -8.9°
Drops below altitude 10° 07:18:28 10° 203° (SSW) 1,656 9.2 -8.4°
Sets 07:20:30 0° 201° (SSW) 2,520 10.2 -8.0°
